www.pogodaiklimat.ru

Погода и климат >> Архив погоды >> Украина >> Ильичевск


ПОГОДА в Ильичёвске

  • Прогноз погоды в Ильичёвске
  • Монитор погоды в Ильичёвске
  • Климат города

АРХИВ ПОГОДЫ в Ильичёвске

Время (UTC), дата Ветер
(напр.,м/с)
 
Видим.   Явления Облачность Т
(С)
Тd
(С)
f
(%)
Тe
(С)
Тes
(С)
Комфортность P
(гПа)
Po
(гПа)
Тmin
(С)
Tmax
(С)
R
(мм)
R24
(мм)
S
(см)
09 19.05 ЮВ 2 2 балла 77 1010.7
12 19.05 Ю 5 45 км 8/3 600 м
[Cu hum Ac trans Ci fib]
+18.7 +16.0 84 +19 +23 1014.0 1014.0
15 19.05 Ю 3 9 баллов 69 1009.3
18 19.05 Ю 2 30 км 9/4 600 м
[Sc diur, vesp Ac trans]
+17.6 +13.7 78 +18 +18 1013.6 1014.0 +20.4
21 19.05 З 2 5 баллов 82 1010.7
00 20.05 З 1 20 км 8/3 600 м
[Sc diur, vesp Ac trans]
+16.4 +14.7 90 +17 +17 1013.9 1014.0
03 20.05 С 2 7 баллов 83 1010.7
06 20.05 СЗ 2 50 км 4/0
[Ac trans]
+18.0 +13.8 76 +19 +24 1015.1 1015.0 +15.5
09 20.05 Ю 3 5 баллов 52 1010.7
12 20.05 СЗ 4 40 км 8/8 1200 м
[Cu med, cong]
+24.1 +12.2 47 +26 +28 жарко 1014.3 1014.0
15 20.05 СВ 3 в посл. час гроза н/о 74 1012.0
18 20.05 С 2 18 км {гроза, ливн. осадки} 6/0
[Ac trans Ci sp]
+17.3 +14.5 84 +18 +18 1016.6 1017.0 +24.7 0.0
21 20.05 СЗ 2 ясно 86 1014.7
00 21.05 СЗ 2 11 км 8/8 1200 м
[Sc]
+15.6 +12.9 84 +15 +15 1018.5 1019.0
03 21.05 С 2 2 балла 65 1016.0
06 21.05 СВ 3 50 км ясно +16.7 +7.8 56 +17 +23 1021.4 1021.0 +14.5
09 21.05 В 4 ясно 51 1017.3
12 21.05 ЮВ 2 50 км ясно +20.2 +9.3 49 +22 +37 комфорт 1020.8 1021.0
15 21.05 Ю 3 2 балла 52 1016.0
18 21.05 ЮЗ 1 26 км ясно +17.3 +6.4 49 +18 +18 1020.2 1020.0 +20.3
21 21.05 СЗ 2 2 балла 66 1016.0
00 22.05 СЗ 2 11 км ясно +13.8 +10.2 79 +13 +13 1020.4 1020.0
03 22.05 СЗ 2 ясно 85 1016.0
06 22.05 СВ 3 30 км 5/0
[Ci fib]
+17.6 +13.7 78 +18 +23 1021.8 1022.0 +12.7
09 22.05 В 2 9 баллов 72 1018.7
12 22.05 В 2 45 км 8/0
[Cc]
+21.4 +9.8 48 +23 +35 комфорт 1021.8 1022.0
15 22.05 Ю 1 ясно 56 1017.3
18 22.05 З 1 ясно 54 1017.3
21 22.05 СЗ 2 ясно 63 1017.3
00 23.05 СЗ 3 13 км ясно +14.6 +10.9 78 +14 +14 1021.1 1021.0
03 23.05 СЗ 2 ясно 78 1017.3
06 23.05 СВ 2 50 км ясно +20.7 +13.6 64 +24 +32 комфорт 1021.3 1021.0 +14.2
09 23.05 В 3 2 балла 53 1017.3
12 23.05 Ю 2 50 км 5/5 800 м
[Cu hum Ci fib]
+24.5 +12.1 46 +26 +34 жарко 1020.3 1020.0
15 23.05 Ю 2 3 балла 46 1014.7
18 23.05 З 2 30 км ясно +23.6 +11.3 46 +25 +25 комфорт 1017.4 1017.0 +25.5
21 23.05 СЗ 2 ясно 70 1013.3
00 24.05 СЗ 2 15 км 3/0
[Ci fib]
+18.0 +9.7 58 +19 +19 1016.5 1017.0
03 24.05 СЗ 3 2 балла 71 1012.0
06 24.05 С 1 5 баллов 67 1012.0
09 24.05 В 2 3 балла 73 1013.3
12 24.05 Ю 2 9 баллов 74 1012.0
15 24.05 штиль 0 9 баллов 64 1010.7
18 24.05 ЮЗ 1 9 баллов 64 1010.7
21 24.05 СЗ 2 дымка 5 баллов 74 1009.3
00 25.05 СЗ 1 5000 м дымка 8/0
[Ac trans]
+19.3 +15.8 80 +22 +22 комфорт 1013.9 1014.0
03 25.05 СЗ 1 ясно 84 1009.3
06 25.05 СВ 4 50 км 3/0
[Ci fib]
+23.1 +13.0 53 +26 +31 жарко 1014.4 1014.0 +18.0
09 25.05 СВ 4 2 балла 52 1010.7
12 25.05 СВ 2 2 балла 43 1010.7
15 25.05 В 1 5 баллов 40 1009.3
18 25.05 С 4 ясно 34 1010.7
21 25.05 С 5 ясно 46 1012.0
00 26.05 СВ 4 21 км 4/0
[Ci fib]
+21.3 +14.7 66 +24 +24 комфорт 1016.6 1017.0
03 26.05 СВ 3 ясно 74 1013.3

 

Местоположение метеостанции Ильичевск (Одесская область, Украина): широта 46.40 долгота 30.70 высота над уровнем моря 52 м.

В архиве по умолчанию представлена погода в Ильичёвске за последнюю неделю. Архивные данные за месяц целиком и за предыдущие месяцы, начиная с января 2011 года, Вы можете получить, выбрав интересующий диапазон дат из раскрывающегося списка и нажав кнопку "Ввод!".


*Определитесь, кто Вы:
робот инопланетянин человек

Внимание! Время в таблицах - всемирное. Для получения местного времени необходимо прибавить поправку, которая в Ильичёвске равна 2 ч.

Смотрите также архив погоды в соседних городах и на ближайших метеорологических станциях:

Погода в Одессе (Одесская область, Украина) (6 км)
Погода в Белгород-Днестровском (Одесская область, Украина) (35 км)
Погода в Раздельной (Одесская область, Украина) (69 км)
Погода в Сербке (Одесская область, Украина) (69 км)
Погода в Заставе (Одесская область, Украина) (70 км)
Погода в Очакове (Николаевская область, Украина) (70 км)
Погода в Сарате (Одесская область, Украина) (90 км)
Погода в Штефан Водэ (Молдова) (94 км)
Погода в Тирасполе (Молдова) (101 км)
Погода в Вилково (Одесская область, Украина) (108 км)

Пояснения к столбцам:

Ветер - указаны скорость ветра в м/с - средняя за 10 мин, порывы в срок и между сроками (в фигурных скобках) и направление, откуда дует ветер: С - северный, СВ - северо-восточный, В - восточный, ЮВ - юго-восточный, Ю - южный, ЮЗ - юго-западный, З - западный, СЗ - северо-западный.
Видимость - горизонтальная дальность видимости в метрах или километрах. При видимости от 1 до 10 км при отсутствии осадков обычно наблюдается дымка, при ухудшении видимости до 1 км и менее - туман. В сухую погоду видимость может ухудшаться дымом, пылью или мглою.
Явления - указаны атмосферные явления, наблюдавшиеся в срок или в последний час перед сроком; фигурными скобками обозначены явления, наблюдавшиеся между сроками (за 1-3 часа до срока); квадратными скобками обозначены град или гололедные отложения с указанием их диаметра в мм.
Облачность - указаны через наклонную черту общая и нижняя облачность в баллах и высота нижней границы облаков в метрах; квадратными скобками обозначены формы облаков: Ci - перистые, Cs - перисто-слоистые, Cc - перисто-кучевые, Ac - высококучевые, As - высокослоистые, Sc - слоисто-кучевые, Ns - слоисто-дождевые, Cu - кучевые, Cb - кучево-дождевые. Подробнее классификацию облаков см. в Атласе облаков (PDF).
T - Температура воздуха - температура, измеренная на высоте 2 м над землей.
Td - Температура точки росы - температура, при понижении до которой содержащийся в воздухе водяной пар достигнет насыщения.
f - Относительная влажность воздуха - влажноcть воздуха, измеренная на высоте 2 м над землей.
Te - Эффективная температура - температура, которую ощущает одетый по сезону человек в тени. Характеристика душности погоды. При расчете учитывается влияние влажности воздуха и скорости ветра на теплоощущения человека.
Tes - Эффективная температура на солнце - температура, которую ощущает человек, с поправкой на солнечный нагрев. Характеристика знойности погоды. Зависит от высоты солнца над горизонтом, облачности и скорости ветра. Ночью, в пасмурную погоду, а также при ветре 12 м/с и более поправка равна нулю.
P - Атмосферное давление - приведенное к уровню моря атмосферное давление.
Po - Атмосферное давление - измеренное на уровне метеостанции атмосферное давление.
Tmin - Минимальная температура - минимум температуры воздуха на высоте 2 м над землей.
Tmax - Максимальная температура - максимум температуры воздуха на высоте 2 м над землей.
R - Количество осадков - Количество выпавших осадков за период времени, мм. При наведении курсора мыши на число - период времени, за который выпало указанное количество осадков.
R24 - Количество осадков - Количество выпавших осадков за 24 часа, мм.
S - Снежный покров - Высота снежного покрова, см. При наведении курсора мыши на число - состояние снежного покрова и степень покрытия местности в баллах.